Location: Albany
(35.0170°S, 117.8920°E)
Time: 21:48:49
(UTC+08:00)

A-11 Canister half - Pass Details

Date: 25 January 2021
Orbit: 1525 x 1684 km, 47.3° (Epoch: 03 March)

Event Time Altitude Azimuth Distance (km) Brightness Sun altitude
Rises 03:20:12 0° 286° (WNW) 4,937 - -21.2°
Reaches altitude 10° 03:23:29 10° 282° (WNW) 3,947 - -20.7°
Exits shadow 03:25:52 19° 277° (W) 3,260 10.2 -20.4°
Maximum altitude 03:33:27 57° 204° (SSW) 1,912 9.5 -19.2°
Drops below altitude 10° 03:43:12 10° 126° (SE) 3,865 12.4 -17.7°
Sets 03:46:24 0° 121° (ESE) 4,830 13.3 -17.2°
